Year,Month,Day,Hour,Minute,Value (Times are PST for barometer in hPa)
2008,02,29,00,00,1012.23
2008,02,29,00,01,1012.26
2008,02,29,00,02,1012.29
2008,02,29,00,03,1012.33
2008,02,29,00,04,1012.26
2008,02,29,00,05,1012.23
2008,02,29,00,06,1012.23
2008,02,29,00,07,1012.23
2008,02,29,00,08,1012.19
2008,02,29,00,09,1012.16
2008,02,29,00,10,1012.09
2008,02,29,00,11,1012.09
2008,02,29,00,12,1012.06
2008,02,29,00,13,1012.06
2008,02,29,00,14,1012.06
2008,02,29,00,15,1011.99
2008,02,29,00,16,1011.99
2008,02,29,00,17,1011.99
2008,02,29,00,18,1011.92
2008,02,29,00,19,1011.92
2008,02,29,00,20,1011.83
2008,02,29,00,21,1011.79
2008,02,29,00,22,1011.79
2008,02,29,00,23,1011.79
2008,02,29,00,24,1011.79
2008,02,29,00,25,1011.82
2008,02,29,00,26,1011.79
2008,02,29,00,27,1011.82
2008,02,29,00,28,1011.79
2008,02,29,00,29,1011.82
2008,02,29,00,30,1011.79
2008,02,29,00,31,1011.79
2008,02,29,00,32,1011.79
2008,02,29,00,33,1011.79
2008,02,29,00,34,1011.79
2008,02,29,00,35,1011.75
2008,02,29,00,36,1011.75
2008,02,29,00,37,1011.75
2008,02,29,00,38,1011.72
2008,02,29,00,39,1011.68
2008,02,29,00,40,1011.65
2008,02,29,00,41,1011.68
2008,02,29,00,42,1011.65
2008,02,29,00,43,1011.68
2008,02,29,00,44,1011.62
2008,02,29,00,45,1011.68
2008,02,29,00,46,1011.65
2008,02,29,00,47,1011.65
2008,02,29,00,48,1011.65
2008,02,29,00,49,1011.62
2008,02,29,00,50,1011.55
2008,02,29,00,51,1011.58
2008,02,29,00,52,1011.51
2008,02,29,00,53,1011.51
2008,02,29,00,54,1011.48
2008,02,29,00,55,1011.45
2008,02,29,00,56,1011.41
2008,02,29,00,57,1011.38
2008,02,29,00,58,1011.31
2008,02,29,00,59,1011.31
2008,02,29,01,00,1011.31
2008,02,29,01,01,1011.25
2008,02,29,01,02,1011.24
2008,02,29,01,03,1011.28
2008,02,29,01,04,1011.31
2008,02,29,01,05,1011.28
2008,02,29,01,06,1011.35
2008,02,29,01,07,1011.31
2008,02,29,01,08,1011.35
2008,02,29,01,09,1011.38
2008,02,29,01,10,1011.38
2008,02,29,01,11,1011.31
2008,02,29,01,12,1011.35
2008,02,29,01,13,1011.38
2008,02,29,01,14,1011.38
2008,02,29,01,15,1011.41
2008,02,29,01,16,1011.38
2008,02,29,01,17,1011.35
2008,02,29,01,18,1011.35
2008,02,29,01,19,1011.35
2008,02,29,01,20,1011.31
2008,02,29,01,21,1011.31
2008,02,29,01,22,1011.31
2008,02,29,01,23,1011.28
2008,02,29,01,24,1011.28
2008,02,29,01,25,1011.24
2008,02,29,01,26,1011.21
2008,02,29,01,27,1011.21
2008,02,29,01,28,1011.21
2008,02,29,01,29,1011.18
2008,02,29,01,30,1011.08
2008,02,29,01,31,1011.11
2008,02,29,01,32,1011.07
2008,02,29,01,33,1011.14
2008,02,29,01,34,1011.18
2008,02,29,01,35,1011.18
2008,02,29,01,36,1011.14
2008,02,29,01,37,1011.11
2008,02,29,01,38,1011.11
2008,02,29,01,39,1011.11
2008,02,29,01,40,1011.11
2008,02,29,01,41,1011.07
2008,02,29,01,42,1011.11
2008,02,29,01,43,1011.11
2008,02,29,01,44,1011.11
2008,02,29,01,45,1011.18
2008,02,29,01,46,1011.18
2008,02,29,01,47,1011.08
2008,02,29,01,48,1011.11
2008,02,29,01,49,1011.07
2008,02,29,01,50,1011.11
2008,02,29,01,51,1011.07
2008,02,29,01,52,1011.07
2008,02,29,01,53,1011.14
2008,02,29,01,54,1011.18
2008,02,29,01,55,1011.14
2008,02,29,01,56,1011.14
2008,02,29,01,57,1011.07
2008,02,29,01,58,1011.07
2008,02,29,01,59,1011.11
2008,02,29,02,00,1011.11
2008,02,29,02,01,1011.04
2008,02,29,02,02,1010.97
2008,02,29,02,03,1010.97
2008,02,29,02,04,1010.91
2008,02,29,02,05,1010.87
2008,02,29,02,06,1010.80
2008,02,29,02,07,1010.80
2008,02,29,02,08,1010.80
2008,02,29,02,09,1010.80
2008,02,29,02,10,1010.77
2008,02,29,02,11,1010.84
2008,02,29,02,12,1010.80
2008,02,29,02,13,1010.80
2008,02,29,02,14,1010.74
2008,02,29,02,15,1010.74
2008,02,29,02,16,1010.74
2008,02,29,02,17,1010.67
2008,02,29,02,18,1010.67
2008,02,29,02,19,1010.67
2008,02,29,02,20,1010.60
2008,02,29,02,21,1010.63
2008,02,29,02,22,1010.60
2008,02,29,02,23,1010.57
2008,02,29,02,24,1010.57
2008,02,29,02,25,1010.50
2008,02,29,02,26,1010.43
2008,02,29,02,27,1010.43
2008,02,29,02,28,1010.43
2008,02,29,02,29,1010.43
2008,02,29,02,30,1010.36
2008,02,29,02,31,1010.36
2008,02,29,02,32,1010.36
2008,02,29,02,33,1010.40
2008,02,29,02,34,1010.40
2008,02,29,02,35,1010.36
2008,02,29,02,36,1010.36
2008,02,29,02,37,1010.26
2008,02,29,02,38,1010.26
2008,02,29,02,39,1010.26
2008,02,29,02,40,1010.26
2008,02,29,02,41,1010.23
2008,02,29,02,42,1010.30
2008,02,29,02,43,1010.23
2008,02,29,02,44,1010.23
2008,02,29,02,45,1010.23
2008,02,29,02,46,1010.23
2008,02,29,02,47,1010.23
2008,02,29,02,48,1010.26
2008,02,29,02,49,1010.16
2008,02,29,02,50,1010.19
2008,02,29,02,51,1010.13
2008,02,29,02,52,1010.09
2008,02,29,02,53,1010.06
2008,02,29,02,54,1010.06
2008,02,29,02,55,1010.06
2008,02,29,02,56,1010.02
2008,02,29,02,57,1009.97
2008,02,29,02,58,1009.89
2008,02,29,02,59,1009.89
2008,02,29,03,00,1009.86
2008,02,29,03,01,1009.79
2008,02,29,03,02,1009.75
2008,02,29,03,03,1009.69
2008,02,29,03,04,1009.69
2008,02,29,03,05,1009.69
2008,02,29,03,06,1009.69
2008,02,29,03,07,1009.69
2008,02,29,03,08,1009.65
2008,02,29,03,09,1009.62
2008,02,29,03,10,1009.58
2008,02,29,03,11,1009.58
2008,02,29,03,12,1009.52
2008,02,29,03,13,1009.48
2008,02,29,03,14,1009.45
2008,02,29,03,15,1009.48
2008,02,29,03,16,1009.45
2008,02,29,03,17,1009.38
2008,02,29,03,18,1009.38
2008,02,29,03,19,1009.38
2008,02,29,03,20,1009.42
2008,02,29,03,21,1009.42
2008,02,29,03,22,1009.42
2008,02,29,03,23,1009.48
2008,02,29,03,24,1009.45
2008,02,29,03,25,1009.48
2008,02,29,03,26,1009.48
2008,02,29,03,27,1009.45
2008,02,29,03,28,1009.48
2008,02,29,03,29,1009.45
2008,02,29,03,30,1009.45
2008,02,29,03,31,1009.48
2008,02,29,03,32,1009.48
2008,02,29,03,33,1009.52
2008,02,29,03,34,1009.52
2008,02,29,03,35,1009.55
2008,02,29,03,36,1009.55
2008,02,29,03,37,1009.58
2008,02,29,03,38,1009.52
2008,02,29,03,39,1009.52
2008,02,29,03,40,1009.45
2008,02,29,03,41,1009.42
2008,02,29,03,42,1009.35
2008,02,29,03,43,1009.28
2008,02,29,03,44,1009.25
2008,02,29,03,45,1009.18
2008,02,29,03,46,1009.05
2008,02,29,03,47,1009.04
2008,02,29,03,48,1008.95
2008,02,29,03,49,1008.91
2008,02,29,03,50,1008.87
2008,02,29,03,51,1008.84
2008,02,29,03,52,1008.84
2008,02,29,03,53,1008.81
2008,02,29,03,54,1008.77
2008,02,29,03,55,1008.77
2008,02,29,03,56,1008.68
2008,02,29,03,57,1008.64
2008,02,29,03,58,1008.60
2008,02,29,03,59,1008.64
2008,02,29,04,00,1008.67
2008,02,29,04,01,1008.70
2008,02,29,04,02,1008.74
2008,02,29,04,03,1008.74
2008,02,29,04,04,1008.70
2008,02,29,04,05,1008.70
2008,02,29,04,06,1008.74
2008,02,29,04,07,1008.67
2008,02,29,04,08,1008.74
2008,02,29,04,09,1008.74
2008,02,29,04,10,1008.65
2008,02,29,04,11,1008.67
2008,02,29,04,12,1008.61
2008,02,29,04,13,1008.57
2008,02,29,04,14,1008.57
2008,02,29,04,15,1008.57
2008,02,29,04,16,1008.57
2008,02,29,04,17,1008.53
2008,02,29,04,18,1008.53
2008,02,29,04,19,1008.57
2008,02,29,04,20,1008.48
2008,02,29,04,21,1008.52
2008,02,29,04,22,1008.50
2008,02,29,04,23,1008.50
2008,02,29,04,24,1008.47
2008,02,29,04,25,1008.43
2008,02,29,04,26,1008.40
2008,02,29,04,27,1008.27
2008,02,29,04,28,1008.33
2008,02,29,04,29,1008.27
2008,02,29,04,30,1008.30
2008,02,29,04,31,1008.30
2008,02,29,04,32,1008.30
2008,02,29,04,33,1008.30
2008,02,29,04,34,1008.26
2008,02,29,04,35,1008.23
2008,02,29,04,36,1008.23
2008,02,29,04,37,1008.23
2008,02,29,04,38,1008.16
2008,02,29,04,39,1008.20
2008,02,29,04,40,1008.16
2008,02,29,04,41,1008.16
2008,02,29,04,42,1008.10
2008,02,29,04,43,1008.06
2008,02,29,04,44,1008.03
2008,02,29,04,45,1007.93
2008,02,29,04,46,1007.86
2008,02,29,04,47,1007.89
2008,02,29,04,48,1007.80
2008,02,29,04,49,1007.76
2008,02,29,04,50,1007.76
2008,02,29,04,51,1007.72
2008,02,29,04,52,1007.65
2008,02,29,04,53,1007.69
2008,02,29,04,54,1007.62
2008,02,29,04,55,1007.62
2008,02,29,04,56,1007.62
2008,02,29,04,57,1007.59
2008,02,29,04,58,1007.59
2008,02,29,04,59,1007.59
2008,02,29,05,00,1007.59
2008,02,29,05,01,1007.62
2008,02,29,05,02,1007.59
2008,02,29,05,03,1007.62
2008,02,29,05,04,1007.59
2008,02,29,05,05,1007.62
2008,02,29,05,06,1007.62
2008,02,29,05,07,1007.55
2008,02,29,05,08,1007.55
2008,02,29,05,09,1007.46
2008,02,29,05,10,1007.38
2008,02,29,05,11,1007.33
2008,02,29,05,12,1007.28
2008,02,29,05,13,1007.18
2008,02,29,05,14,1007.21
2008,02,29,05,15,1007.21
2008,02,29,05,16,1007.25
2008,02,29,05,17,1007.21
2008,02,29,05,18,1007.25
2008,02,29,05,19,1007.18
2008,02,29,05,20,1007.15
2008,02,29,05,21,1007.08
2008,02,29,05,22,1007.14
2008,02,29,05,23,1007.20
2008,02,29,05,24,1007.28
2008,02,29,05,25,1007.32
2008,02,29,05,26,1007.35
2008,02,29,05,27,1007.35
2008,02,29,05,28,1007.35
2008,02,29,05,29,1007.38
2008,02,29,05,30,1007.42
2008,02,29,05,31,1007.45
2008,02,29,05,32,1007.45
2008,02,29,05,33,1007.51
2008,02,29,05,34,1007.52
2008,02,29,05,35,1007.48
2008,02,29,05,36,1007.48
2008,02,29,05,37,1007.52
2008,02,29,05,38,1007.43
2008,02,29,05,39,1007.42
2008,02,29,05,40,1007.38
2008,02,29,05,41,1007.35
2008,02,29,05,42,1007.38
2008,02,29,05,43,1007.35
2008,02,29,05,44,1007.32
2008,02,29,05,45,1007.26
2008,02,29,05,46,1007.25
2008,02,29,05,47,1007.25
2008,02,29,05,48,1007.25
2008,02,29,05,49,1007.21
2008,02,29,05,50,1007.18
2008,02,29,05,51,1007.15
2008,02,29,05,52,1007.15
2008,02,29,05,53,1007.11
2008,02,29,05,54,1007.08
2008,02,29,05,55,1007.04
2008,02,29,05,56,1007.08
2008,02,29,05,57,1007.08
2008,02,29,05,58,1007.15
2008,02,29,05,59,1007.15
2008,02,29,06,00,1007.18
2008,02,29,06,01,1007.24
2008,02,29,06,02,1007.21
2008,02,29,06,03,1007.21
2008,02,29,06,04,1007.16
2008,02,29,06,05,1007.15
2008,02,29,06,06,1007.00
2008,02,29,06,07,1007.04
2008,02,29,06,08,1006.98
2008,02,29,06,09,1006.92
2008,02,29,06,10,1006.84
2008,02,29,06,11,1006.75
2008,02,29,06,12,1006.77
2008,02,29,06,13,1006.67
2008,02,29,06,14,1006.67
2008,02,29,06,15,1006.67
2008,02,29,06,16,1006.71
2008,02,29,06,17,1006.71
2008,02,29,06,18,1006.67
2008,02,29,06,19,1006.67
2008,02,29,06,20,1006.61
2008,02,29,06,21,1006.60
2008,02,29,06,22,1006.54
2008,02,29,06,23,1006.47
2008,02,29,06,24,1006.44
2008,02,29,06,25,1006.50
2008,02,29,06,26,1006.45
2008,02,29,06,27,1006.40
2008,02,29,06,28,1006.37
2008,02,29,06,29,1006.30
2008,02,29,06,30,1006.37
2008,02,29,06,31,1006.33
2008,02,29,06,32,1006.33
2008,02,29,06,33,1006.33
2008,02,29,06,34,1006.30
2008,02,29,06,35,1006.27
2008,02,29,06,36,1006.27
2008,02,29,06,37,1006.27
2008,02,29,06,38,1006.20
2008,02,29,06,39,1006.13
2008,02,29,06,40,1006.10
2008,02,29,06,41,1006.13
2008,02,29,06,42,1006.04
2008,02,29,06,43,1006.03
2008,02,29,06,44,1005.97
2008,02,29,06,45,1005.84
2008,02,29,06,46,1005.88
2008,02,29,06,47,1005.96
2008,02,29,06,48,1005.87
2008,02,29,06,49,1005.89
2008,02,29,06,50,1005.89
2008,02,29,06,51,1005.93
2008,02,29,06,52,1005.93
2008,02,29,06,53,1005.93
2008,02,29,06,54,1005.93
2008,02,29,06,55,1005.89
2008,02,29,06,56,1005.93
2008,02,29,06,57,1005.93
2008,02,29,06,58,1005.86
2008,02,29,06,59,1005.86
2008,02,29,07,00,1005.83
2008,02,29,07,01,1005.83
2008,02,29,07,02,1005.86
2008,02,29,07,03,1005.89
2008,02,29,07,04,1005.89
2008,02,29,07,05,1005.86
2008,02,29,07,06,1005.83
2008,02,29,07,07,1005.79
2008,02,29,07,08,1005.76
2008,02,29,07,09,1005.72
2008,02,29,07,10,1005.66
2008,02,29,07,11,1005.66
2008,02,29,07,12,1005.62
2008,02,29,07,13,1005.62
2008,02,29,07,14,1005.65
2008,02,29,07,15,1005.66
2008,02,29,07,16,1005.66
2008,02,29,07,17,1005.69
2008,02,29,07,18,1005.60
2008,02,29,07,19,1005.77
2008,02,29,07,20,1005.63
2008,02,29,07,21,1005.66
2008,02,29,07,22,1005.69
2008,02,29,07,23,1005.69
2008,02,29,07,24,1005.66
2008,02,29,07,25,1005.66
2008,02,29,07,26,1005.62
2008,02,29,07,27,1005.62
2008,02,29,07,28,1005.66
2008,02,29,07,29,1005.59
2008,02,29,07,30,1005.55
2008,02,29,07,31,1005.59
2008,02,29,07,32,1005.55
2008,02,29,07,33,1005.49
2008,02,29,07,34,1005.55
2008,02,29,07,35,1005.50
2008,02,29,07,36,1005.45
2008,02,29,07,37,1005.45
2008,02,29,07,38,1005.42
2008,02,29,07,39,1005.45
2008,02,29,07,40,1005.39
2008,02,29,07,41,1005.42
2008,02,29,07,42,1005.39
2008,02,29,07,43,1005.39
2008,02,29,07,44,1005.42
2008,02,29,07,45,1005.39
2008,02,29,07,46,1005.35
2008,02,29,07,47,1005.35
2008,02,29,07,48,1005.26
2008,02,29,07,49,1005.38
2008,02,29,07,50,1005.30
2008,02,29,07,51,1005.28
2008,02,29,07,52,1005.28
2008,02,29,07,53,1005.22
2008,02,29,07,54,1005.18
2008,02,29,07,55,1005.18
2008,02,29,07,56,1005.22
2008,02,29,07,57,1005.16
2008,02,29,07,58,1005.11
2008,02,29,07,59,1005.17
2008,02,29,08,00,1005.00
2008,02,29,08,01,1004.92
2008,02,29,08,02,1004.95
2008,02,29,08,03,1004.95
2008,02,29,08,04,1004.95
2008,02,29,08,05,1004.89
2008,02,29,08,06,1004.81
2008,02,29,08,07,1004.84
2008,02,29,08,08,1004.90
2008,02,29,08,09,1004.91
2008,02,29,08,10,1004.91
2008,02,29,08,11,1004.88
2008,02,29,08,12,1004.84
2008,02,29,08,13,1004.79
2008,02,29,08,14,1004.81
2008,02,29,08,15,1004.72
2008,02,29,08,16,1004.67
2008,02,29,08,17,1004.64
2008,02,29,08,18,1004.67
2008,02,29,08,19,1004.64
2008,02,29,08,20,1004.67
2008,02,29,08,21,1004.58
2008,02,29,08,22,1004.50
2008,02,29,08,23,1004.50
2008,02,29,08,24,1004.47
2008,02,29,08,25,1004.47
2008,02,29,08,26,1004.44
2008,02,29,08,27,1004.35
2008,02,29,08,28,1004.43
2008,02,29,08,29,1004.31
2008,02,29,08,30,1004.21
2008,02,29,08,31,1004.33
2008,02,29,08,32,1004.34
2008,02,29,08,33,1004.34
2008,02,29,08,34,1004.39
2008,02,29,08,35,1004.28
2008,02,29,08,36,1004.27
2008,02,29,08,37,1004.20
2008,02,29,08,38,1004.23
2008,02,29,08,39,1004.27
2008,02,29,08,40,1004.23
2008,02,29,08,41,1004.27
2008,02,29,08,42,1004.23
2008,02,29,08,43,1004.27
2008,02,29,08,44,1004.24
2008,02,29,08,45,1004.20
2008,02,29,08,46,1004.20
2008,02,29,08,47,1004.17
2008,02,29,08,48,1004.26
2008,02,29,08,49,1004.18
2008,02,29,08,50,1004.20
2008,02,29,08,51,1004.11
2008,02,29,08,52,1004.16
2008,02,29,08,53,1004.11
2008,02,29,08,54,1004.13
2008,02,29,08,55,1004.13
2008,02,29,08,56,1004.10
2008,02,29,08,57,1004.13
2008,02,29,08,58,1004.16
2008,02,29,08,59,1004.04
2008,02,29,09,00,1004.09
2008,02,29,09,01,1004.10
2008,02,29,09,02,1003.97
2008,02,29,09,03,1004.00
2008,02,29,09,04,1004.00
2008,02,29,09,05,1003.97
2008,02,29,09,06,1003.93
2008,02,29,09,07,1003.93
2008,02,29,09,08,1003.90
2008,02,29,09,09,1003.86
2008,02,29,09,10,1003.92
2008,02,29,09,11,1003.93
2008,02,29,09,12,1003.86
2008,02,29,09,13,1003.83
2008,02,29,09,14,1003.86
2008,02,29,09,15,1003.83
2008,02,29,09,16,1003.77
2008,02,29,09,17,1003.89
2008,02,29,09,18,1003.86
2008,02,29,09,19,1003.83
2008,02,29,09,20,1003.79
2008,02,29,09,21,1003.83
2008,02,29,09,22,1003.83
2008,02,29,09,23,1003.77
2008,02,29,09,24,1003.89
2008,02,29,09,25,1003.80
2008,02,29,09,26,1003.70
2008,02,29,09,27,1003.62
2008,02,29,09,28,1003.53
2008,02,29,09,29,1003.52
2008,02,29,09,30,1003.52
2008,02,29,09,31,1003.43
2008,02,29,09,32,1003.36
2008,02,29,09,33,1003.35
2008,02,29,09,34,1003.39
2008,02,29,09,35,1003.35
2008,02,29,09,36,1003.35
2008,02,29,09,37,1003.39
2008,02,29,09,38,1003.32
2008,02,29,09,39,1003.35
2008,02,29,09,40,1003.35
2008,02,29,09,41,1003.35
2008,02,29,09,42,1003.32
2008,02,29,09,43,1003.38
2008,02,29,09,44,1003.35
2008,02,29,09,45,1003.35
2008,02,29,09,46,1003.39
2008,02,29,09,47,1003.39
2008,02,29,09,48,1003.30
2008,02,29,09,49,1003.23
2008,02,29,09,50,1003.15
2008,02,29,09,51,1003.18
2008,02,29,09,52,1003.15
2008,02,29,09,53,1003.12
2008,02,29,09,54,1003.15
2008,02,29,09,55,1003.15
2008,02,29,09,56,1003.15
2008,02,29,09,57,1003.15
2008,02,29,09,58,1003.15
2008,02,29,09,59,1003.08
2008,02,29,10,00,1003.02
2008,02,29,10,01,1003.04
2008,02,29,10,02,1003.01
2008,02,29,10,03,1003.05
2008,02,29,10,04,1002.96
2008,02,29,10,05,1003.04
2008,02,29,10,06,1003.01
2008,02,29,10,07,1002.98
2008,02,29,10,08,1002.95
2008,02,29,10,09,1002.98
2008,02,29,10,10,1003.01
2008,02,29,10,11,1003.05
2008,02,29,10,12,1003.05
2008,02,29,10,13,1003.05
2008,02,29,10,14,1002.99
2008,02,29,10,15,1002.95
2008,02,29,10,16,1002.86
2008,02,29,10,17,1002.85
2008,02,29,10,18,1002.75
2008,02,29,10,19,1002.84
2008,02,29,10,20,1002.70
2008,02,29,10,21,1002.77
2008,02,29,10,22,1002.72
2008,02,29,10,23,1002.78
2008,02,29,10,24,1002.81
2008,02,29,10,25,1002.81
2008,02,29,10,26,1002.78
2008,02,29,10,27,1002.74
2008,02,29,10,28,1002.84
2008,02,29,10,29,1002.59
2008,02,29,10,30,1002.51
2008,02,29,10,31,1002.45
2008,02,29,10,32,1002.47
2008,02,29,10,33,1002.60
2008,02,29,10,34,1002.67
2008,02,29,10,35,1002.58
2008,02,29,10,36,1002.52
2008,02,29,10,37,1002.56
2008,02,29,10,38,1002.67
2008,02,29,10,39,1002.62
2008,02,29,10,40,1002.64
2008,02,29,10,41,1002.68
2008,02,29,10,42,1002.53
2008,02,29,10,43,1002.51
2008,02,29,10,44,1002.54
2008,02,29,10,45,1002.51
2008,02,29,10,46,1002.47
2008,02,29,10,47,1002.47
2008,02,29,10,48,1002.42
2008,02,29,10,49,1002.50
2008,02,29,10,50,1002.30
2008,02,29,10,51,1002.21
2008,02,29,10,52,1002.24
2008,02,29,10,53,1002.29
2008,02,29,10,54,1002.30
2008,02,29,10,55,1002.19
2008,02,29,10,56,1002.17
2008,02,29,10,57,1002.26
2008,02,29,10,58,1002.30
2008,02,29,10,59,1002.27
2008,02,29,11,00,1002.30
2008,02,29,11,01,1002.13
2008,02,29,11,02,1002.13
2008,02,29,11,03,1002.08
2008,02,29,11,04,1002.10
2008,02,29,11,05,1002.10
2008,02,29,11,06,1002.16
2008,02,29,11,07,1002.17
2008,02,29,11,08,1002.20
2008,02,29,11,09,1002.11
2008,02,29,11,10,1002.10
2008,02,29,11,11,1002.01
2008,02,29,11,12,1002.03
2008,02,29,11,13,1001.94
2008,02,29,11,14,1001.93
2008,02,29,11,15,1001.97
2008,02,29,11,16,1002.00
2008,02,29,11,17,1002.03
2008,02,29,11,18,1002.00
2008,02,29,11,19,1001.97
2008,02,29,11,20,1001.91
2008,02,29,11,21,1001.72
2008,02,29,11,22,1001.82
2008,02,29,11,23,1001.71
2008,02,29,11,24,1001.72
2008,02,29,11,25,1001.76
2008,02,29,11,26,1001.76
2008,02,29,11,27,1001.70
2008,02,29,11,28,1001.66
2008,02,29,11,29,1001.63
2008,02,29,11,30,1001.63
2008,02,29,11,31,1001.63
2008,02,29,11,32,1001.57
2008,02,29,11,33,1001.52
2008,02,29,11,34,1001.62
2008,02,29,11,35,1001.57
2008,02,29,11,36,1001.56
2008,02,29,11,37,1001.50
2008,02,29,11,38,1001.37
2008,02,29,11,39,1001.48
2008,02,29,11,40,1001.58
2008,02,29,11,41,1001.53
2008,02,29,11,42,1001.35
2008,02,29,11,43,1001.47
2008,02,29,11,44,1001.40
2008,02,29,11,45,1001.30
2008,02,29,11,46,1001.26
2008,02,29,11,47,1001.20
2008,02,29,11,48,1001.22
2008,02,29,11,49,1001.28
2008,02,29,11,50,1001.23
2008,02,29,11,51,1001.25
2008,02,29,11,52,1001.40
2008,02,29,11,53,1001.21
2008,02,29,11,54,1001.09
2008,02,29,11,55,1001.05
2008,02,29,11,56,1001.05
2008,02,29,11,57,1000.96
2008,02,29,11,58,1000.98
2008,02,29,11,59,1000.95
2008,02,29,12,00,1000.89
2008,02,29,12,01,1001.03
2008,02,29,12,02,1000.99
2008,02,29,12,03,1000.93
2008,02,29,12,04,1000.89
2008,02,29,12,05,1001.03
2008,02,29,12,06,1000.97
2008,02,29,12,07,1000.95
2008,02,29,12,08,1000.86
2008,02,29,12,09,1000.88
2008,02,29,12,10,1000.85
2008,02,29,12,11,1000.79
2008,02,29,12,12,1000.72
2008,02,29,12,13,1000.71
2008,02,29,12,14,1000.53
2008,02,29,12,15,1000.69
2008,02,29,12,16,1000.62
2008,02,29,12,17,1000.61
2008,02,29,12,18,1000.58
2008,02,29,12,19,1000.54
2008,02,29,12,20,1000.49
2008,02,29,12,21,1000.30
2008,02,29,12,22,1000.24
2008,02,29,12,23,1000.30
2008,02,29,12,24,1000.27
2008,02,29,12,25,1000.27
2008,02,29,12,26,1000.31
2008,02,29,12,27,1000.31
2008,02,29,12,28,1000.40
2008,02,29,12,29,1000.29
2008,02,29,12,30,1000.31
2008,02,29,12,31,1000.39
2008,02,29,12,32,1000.38
2008,02,29,12,33,1000.41
2008,02,29,12,34,1000.47
2008,02,29,12,35,1000.48
2008,02,29,12,36,1000.44
2008,02,29,12,37,1000.57
2008,02,29,12,38,1000.49
2008,02,29,12,39,1000.48
2008,02,29,12,40,1000.53
2008,02,29,12,41,1000.40
2008,02,29,12,42,1000.40
2008,02,29,12,43,1000.41
2008,02,29,12,44,1000.47
2008,02,29,12,45,1000.44
2008,02,29,12,46,1000.44
2008,02,29,12,47,1000.38
2008,02,29,12,48,1000.52
2008,02,29,12,49,1000.54
2008,02,29,12,50,1000.43
2008,02,29,12,51,1000.44
2008,02,29,12,52,1000.35
2008,02,29,12,53,1000.40
2008,02,29,12,54,1000.41
2008,02,29,12,55,1000.37
2008,02,29,12,56,1000.34
2008,02,29,12,57,1000.31
2008,02,29,12,58,1000.31
2008,02,29,12,59,1000.22
2008,02,29,13,00,1000.30
2008,02,29,13,01,1000.40
2008,02,29,13,02,1000.53
2008,02,29,13,03,1000.49
2008,02,29,13,04,1000.44
2008,02,29,13,05,1000.38
2008,02,29,13,06,1000.43
2008,02,29,13,07,1000.50
2008,02,29,13,08,1000.42
2008,02,29,13,09,1000.35
2008,02,29,13,10,1000.34
2008,02,29,13,11,1000.37
2008,02,29,13,12,1000.37
2008,02,29,13,13,1000.37
2008,02,29,13,14,1000.40
2008,02,29,13,15,1000.41
2008,02,29,13,16,1000.35
2008,02,29,13,17,1000.37
2008,02,29,13,18,1000.37
2008,02,29,13,19,1000.37
2008,02,29,13,20,1000.37
2008,02,29,13,21,1000.34
2008,02,29,13,22,1000.28
2008,02,29,13,23,1000.24
2008,02,29,13,24,1000.24
2008,02,29,13,25,1000.27
2008,02,29,13,26,1000.35
2008,02,29,13,27,1000.32
2008,02,29,13,28,1000.31
2008,02,29,13,29,1000.22
2008,02,29,13,30,1000.17
2008,02,29,13,31,1000.17
2008,02,29,13,32,1000.30
2008,02,29,13,33,1000.25
2008,02,29,13,34,1000.21
2008,02,29,13,35,1000.20
2008,02,29,13,36,1000.20
2008,02,29,13,37,1000.20
2008,02,29,13,38,1000.32
2008,02,29,13,39,1000.28
2008,02,29,13,40,1000.24
2008,02,29,13,41,1000.24
2008,02,29,13,42,1000.24
2008,02,29,13,43,1000.24
2008,02,29,13,44,1000.21
2008,02,29,13,45,1000.15
2008,02,29,13,46,1000.14
2008,02,29,13,47,1000.14
2008,02,29,13,48,1000.10
2008,02,29,13,49,1000.07
2008,02,29,13,50,1000.07
2008,02,29,13,51,1000.13
2008,02,29,13,52,1000.08
2008,02,29,13,53,1000.10
2008,02,29,13,54,1000.04
2008,02,29,13,55,999.98
2008,02,29,13,56,1000.06
2008,02,29,13,57,999.98
2008,02,29,13,58,999.94
2008,02,29,13,59,999.93
2008,02,29,14,00,999.93
2008,02,29,14,01,999.99
2008,02,29,14,02,1000.00
2008,02,29,14,03,999.94
2008,02,29,14,04,999.93
2008,02,29,14,05,999.96
2008,02,29,14,06,999.91
2008,02,29,14,07,999.93
2008,02,29,14,08,999.93
2008,02,29,14,09,999.93
2008,02,29,14,10,999.91
2008,02,29,14,11,999.99
2008,02,29,14,12,999.97
2008,02,29,14,13,999.97
2008,02,29,14,14,999.97
2008,02,29,14,15,999.99
2008,02,29,14,16,1000.09
2008,02,29,14,17,1000.07
2008,02,29,14,18,1000.07
2008,02,29,14,19,1000.04
2008,02,29,14,20,1000.00
2008,02,29,14,21,999.97
2008,02,29,14,22,1000.02
2008,02,29,14,23,1000.07
2008,02,29,14,24,1000.10
2008,02,29,14,25,1000.14
2008,02,29,14,26,1000.19
2008,02,29,14,27,1000.17
2008,02,29,14,28,1000.17
2008,02,29,14,29,1000.25
2008,02,29,14,30,1000.21
2008,02,29,14,31,1000.15
2008,02,29,14,32,1000.14
2008,02,29,14,33,1000.11
2008,02,29,14,34,1000.07
2008,02,29,14,35,1000.04
2008,02,29,14,36,999.98
2008,02,29,14,37,999.97
2008,02,29,14,38,1000.00
2008,02,29,14,39,1000.03
2008,02,29,14,40,1000.00
2008,02,29,14,41,999.97
2008,02,29,14,42,1000.00
2008,02,29,14,43,999.94
2008,02,29,14,44,999.93
2008,02,29,14,45,999.99
2008,02,29,14,46,1000.00
2008,02,29,14,47,999.97
2008,02,29,14,48,999.99
2008,02,29,14,49,1000.00
2008,02,29,14,50,1000.00
2008,02,29,14,51,1000.00
2008,02,29,14,52,999.97
2008,02,29,14,53,999.85
2008,02,29,14,54,999.77
2008,02,29,14,55,999.79
2008,02,29,14,56,999.74
2008,02,29,14,57,999.70
2008,02,29,14,58,999.70
2008,02,29,14,59,999.60
2008,02,29,15,00,999.57
2008,02,29,15,01,999.62
2008,02,29,15,02,999.57
2008,02,29,15,03,999.62
2008,02,29,15,04,999.60
2008,02,29,15,05,999.57
2008,02,29,15,06,999.53
2008,02,29,15,07,999.53
2008,02,29,15,08,999.50
2008,02,29,15,09,999.52
2008,02,29,15,10,999.53
2008,02,29,15,11,999.53
2008,02,29,15,12,999.49
2008,02,29,15,13,999.49
2008,02,29,15,14,999.44
2008,02,29,15,15,999.48
2008,02,29,15,16,999.52
2008,02,29,15,17,999.65
2008,02,29,15,18,999.72
2008,02,29,15,19,999.76
2008,02,29,15,20,999.80
2008,02,29,15,21,999.84
2008,02,29,15,22,999.93
2008,02,29,15,23,999.93
2008,02,29,15,24,999.97
2008,02,29,15,25,999.97
2008,02,29,15,26,1000.07
2008,02,29,15,27,1000.10
2008,02,29,15,28,999.97
2008,02,29,15,29,999.93
2008,02,29,15,30,999.87
2008,02,29,15,31,999.83
2008,02,29,15,32,999.87
2008,02,29,15,33,999.90
2008,02,29,15,34,999.97
2008,02,29,15,35,1000.10
2008,02,29,15,36,1000.10
2008,02,29,15,37,1000.14
2008,02,29,15,38,1000.17
2008,02,29,15,39,1000.10
2008,02,29,15,40,1000.10
2008,02,29,15,41,1000.10
2008,02,29,15,42,1000.17
2008,02,29,15,43,1000.27
2008,02,29,15,44,1000.37
2008,02,29,15,45,1000.41
2008,02,29,15,46,1000.54
2008,02,29,15,47,1000.58
2008,02,29,15,48,1000.64
2008,02,29,15,49,1000.68
2008,02,29,15,50,1000.61
2008,02,29,15,51,1000.61
2008,02,29,15,52,1000.58
2008,02,29,15,53,1000.58
2008,02,29,15,54,1000.44
2008,02,29,15,55,1000.37
2008,02,29,15,56,1000.37
2008,02,29,15,57,1000.37
2008,02,29,15,58,1000.31